FW5704 Weather Reports


Display with metric or nautical units.
time (UTC)temp
F
wind
direction
speed
MPH
gust
MPH
rain 1hr
in
rain 24hr
in
rain mn
in
humidity
%
barometer
mb
20260904095533 69 0 0.0 0.0 0.00 0.29 0.00 95 1019.9
20260904095032 69 0 0.0 0.0 0.00 0.29 0.00 95 1019.8
20260904094615 69 0 0.0 0.0 0.00 0.29 0.00 95 1019.8
20260904094032 69 0 0.0 0.0 0.00 0.29 0.00 95 1019.6
20260904093534 69 0 0.0 0.0 0.00 0.29 0.00 95 1019.6
20260904093103 69 0 0.0 0.0 0.00 0.29 0.00 95 1019.5
20260904092533 69 0 0.0 0.0 0.00 0.29 0.00 95 1019.6
20260904092036 69 0 0.0 0.0 0.00 0.29 0.00 95 1019.6
20260904091554 69 0 0.0 0.0 0.00 0.29 0.00 95 1019.6
20260904091035 69 0 0.0 0.0 0.00 0.29 0.00 95 1019.6
20260904090536 69 0 0.0 0.0 0.00 0.29 0.00 95 1019.6
20260904090056 69 0 0.0 0.0 0.00 0.29 0.00 95 1019.6
20260904085534 69 0 0.0 0.0 0.00 0.29 0.00 95 1019.6
20260904085034 69 0 0.0 0.0 0.00 0.29 0.00 95 1019.6
20260904084559 70 0 0.0 0.0 0.00 0.29 0.00 95 1019.4
20260904084034 70 0 0.0 0.0 0.00 0.29 0.00 95 1019.5
20260904083534 70 0 0.0 0.0 0.00 0.29 0.00 95 1019.5
20260904083100 70 0 0.0 0.0 0.00 0.29 0.00 95 1019.6
20260904082536 70 0 0.0 0.0 0.00 0.29 0.00 95 1019.4
20260904082032 70 0 0.0 0.0 0.00 0.29 0.00 95 1019.5
20260904081550 70 0 0.0 0.0 0.00 0.29 0.00 95 1019.5
20260904081033 70 0 0.0 0.0 0.00 0.29 0.00 95 1019.4
20260904080533 70 0 0.0 0.0 0.00 0.29 0.00 95 1019.5
20260904080125 70 0 0.0 0.0 0.00 0.29 0.00 95 1019.5
20260904075534 70 0 0.0 1.0 0.00 0.29 0.00 95 1019.4
20260904075034 70 0 0.0 1.0 0.00 0.29 0.00 95 1019.5
20260904074607 70 0 0.0 0.0 0.00 0.29 0.00 95 1019.5
20260904074034 70 0 0.0 0.0 0.00 0.29 0.00 95 1019.4
20260904073534 70 0 0.0 0.0 0.00 0.29 0.00 95 1019.4
20260904073054 70 0 0.0 0.0 0.00 0.29 0.00 95 1019.5
20260904072534 70 0 0.0 0.0 0.00 0.29 0.00 95 1019.6
20260904072030 70 0 0.0 0.0 0.00 0.29 0.00 95 1019.5
20260904071554 70 0 0.0 0.0 0.00 0.29 0.00 95 1019.5
20260904071035 71 0 0.0 0.0 0.00 0.29 0.00 95 1019.5
20260904070533 71 0 0.0 1.0 0.00 0.29 0.00 95 1019.5
20260904070052 71 0 0.0 1.0 0.00 0.29 0.00 95 1019.5
20260904065534 71 0 0.0 1.0 0.00 0.29 0.00 95 1019.7
20260904065036 71 302 0.0 0.0 0.00 0.29 0.00 95 1019.7
20260904064606 71 0 0.0 0.0 0.00 0.29 0.00 95 1019.7
20260904064033 71 0 0.0 0.0 0.00 0.29 0.00 95 1019.7
20260904063533 71 0 0.0 0.0 0.00 0.29 0.00 95 1019.7
20260904063053 71 0 0.0 0.0 0.00 0.29 0.00 95 1019.7
20260904062536 71 0 0.0 1.0 0.00 0.29 0.00 95 1019.7
20260904062032 71 0 0.0 1.0 0.00 0.29 0.00 95 1019.8
20260904061550 71 302 0.0 1.0 0.00 0.29 0.00 95 1019.7
20260904061037 71 0 0.0 0.0 0.00 0.29 0.00 95 1019.8
20260904060532 71 0 0.0 2.0 0.00 0.29 0.00 95 1019.8
20260904060119 71 0 0.0 2.0 0.00 0.29 0.00 95 1019.8
20260904055533 71 302 0.0 2.0 0.00 0.29 0.00 95 1020.0
20260904055033 71 0 0.0 2.0 0.00 0.29 0.00 95 1020.0
20260904054601 71 0 0.0 2.0 0.00 0.29 0.00 95 1020.1
20260904054034 71 0 0.0 2.0 0.00 0.29 0.00 95 1020.1
20260904053533 71 0 0.0 1.0 0.00 0.29 0.00 95 1020.1
20260904053144 71 302 0.0 1.0 0.00 0.29 0.00 94 1020.1
20260904052536 71 0 0.0 1.0 0.00 0.29 0.00 94 1020.2
20260904052033 71 0 0.0 1.0 0.00 0.29 0.00 94 1020.1
20260904051607 71 0 0.0 1.0 0.00 0.29 0.00 94 1020.1
20260904051032 71 0 0.0 1.0 0.00 0.29 0.00 94 1020.4
20260904050535 72 0 0.0 2.0 0.00 0.29 0.00 94 1020.4
20260904050052 72 302 0.0 2.0 0.00 0.29 0.00 94 1020.3
20260904045533 72 0 0.0 2.0 0.00 0.29 0.00 94 1020.5
20260904045034 72 0 0.0 2.0 0.00 0.29 0.00 94 1020.4
20260904044604 72 302 0.0 2.0 0.00 0.29 0.00 94 1020.6
20260904044032 72 0 0.0 1.0 0.00 0.29 0.00 94 1020.5
20260904043532 72 0 0.0 2.0 0.00 0.29 0.00 94 1020.6
20260904043104 72 0 0.0 2.0 0.00 0.29 0.00 94 1020.7
20260904042533 72 0 0.0 2.0 0.00 0.29 0.00 94 1020.7
20260904042034 72 0 0.0 3.0 0.00 0.29 0.00 94 1020.6
20260904041600 72 0 0.0 3.0 0.00 0.29 0.00 94 1020.5
20260904041034 72 294 0.0 1.0 0.00 0.29 0.00 94 1020.6
20260904040536 72 0 0.0 1.0 0.00 0.29 0.00 94 1020.7
20260904040104 72 0 0.0 0.0 0.00 0.29 0.00 94 1020.7
20260904035534 72 0 0.0 2.0 0.00 0.29 0.29 94 1020.7
20260904035034 72 0 0.0 2.0 0.00 0.29 0.29 94 1020.8
20260904034558 73 0 0.0 2.0 0.00 0.29 0.29 94 1020.9
20260904034032 72 0 0.0 3.0 0.00 0.29 0.29 94 1020.8
20260904033537 72 295 0.0 3.0 0.00 0.29 0.29 94 1020.8
20260904033103 73 0 0.0 0.0 0.00 0.29 0.29 94 1020.8
20260904032533 73 0 0.0 0.0 0.00 0.29 0.29 94 1020.8
20260904032034 73 0 0.0 0.0 0.00 0.29 0.29 94 1020.8
20260904031552 73 0 0.0 0.0 0.00 0.29 0.29 94 1020.9
20260904031033 73 0 0.0 0.0 0.00 0.29 0.29 94 1021.0
20260904030533 73 0 0.0 0.0 0.00 0.29 0.29 94 1020.9
20260904030052 73 0 0.0 0.0 0.00 0.29 0.29 94 1020.9
20260904025533 73 0 0.0 0.0 0.00 0.29 0.29 94 1020.9
20260904025033 73 0 0.0 0.0 0.00 0.29 0.29 94 1020.8
20260904024620 73 0 0.0 0.0 0.00 0.29 0.29 93 1020.9
20260904024033 73 0 0.0 0.0 0.00 0.29 0.29 93 1020.8
20260904023534 73 0 0.0 0.0 0.00 0.29 0.29 93 1020.8
20260904023054 73 0 0.0 0.0 0.00 0.29 0.29 93 1020.8
20260904022533 73 0 0.0 0.0 0.00 0.29 0.29 93 1020.8
20260904022033 73 0 0.0 0.0 0.00 0.29 0.29 94 1020.9
20260904021558 73 0 0.0 0.0 0.00 0.29 0.29 94 1020.8
20260904021033 73 0 0.0 0.0 0.00 0.29 0.29 93 1020.7
20260904020533 73 0 0.0 0.0 0.00 0.29 0.29 93 1020.6
20260904020059 73 0 0.0 0.0 0.00 0.29 0.29 93 1020.6
20260904015533 73 0 0.0 0.0 0.00 0.29 0.29 93 1020.4
20260904015034 73 0 0.0 0.0 0.00 0.29 0.29 93 1020.5
20260904014557 73 0 0.0 0.0 0.00 0.29 0.29 93 1020.3
20260904014034 73 0 0.0 0.0 0.00 0.29 0.29 93 1020.2
20260904013532 74 0 0.0 0.0 0.00 0.29 0.29 93 1020.2
20260904013054 74 0 0.0 0.0 0.00 0.29 0.29 93 1020.2
20260904012533 74 0 0.0 0.0 0.00 0.29 0.29 93 1020.1
20260904012036 74 0 0.0 0.0 0.00 0.29 0.29 93 1020.0
20260904011600 74 0 0.0 0.0 0.00 0.29 0.29 93 1020.0
20260904011033 74 0 0.0 0.0 0.00 0.29 0.29 93 1019.9
20260904010533 74 0 0.0 0.0 0.00 0.29 0.29 93 1019.8
20260904010058 74 0 0.0 0.0 0.00 0.29 0.29 93 1019.8
20260904005533 74 0 0.0 0.0 0.00 0.29 0.29 93 1019.8
20260904005033 74 0 0.0 0.0 0.00 0.29 0.29 93 1019.6
20260904004601 74 0 0.0 0.0 0.00 0.29 0.29 93 1019.6
20260904004034 74 0 0.0 0.0 0.00 0.29 0.29 93 1019.4
20260904003534 75 0 0.0 0.0 0.00 0.29 0.29 93 1019.3
20260904003059 75 0 0.0 0.0 0.00 0.29 0.29 93 1019.4
20260904002533 75 0 0.0 0.0 0.00 0.29 0.29 93 1019.4
20260904002034 75 0 0.0 1.0 0.00 0.29 0.29 92 1019.4
20260904001603 75 0 0.0 1.0 0.00 0.29 0.29 92 1019.3
20260904001037 75 0 0.0 2.0 0.00 0.29 0.29 92 1019.3
20260904000535 75 0 0.0 2.0 0.00 0.29 0.29 92 1019.2
20260904000114 76 0 0.0 2.0 0.00 0.29 0.29 91 1019.1
20260903235534 76 302 0.0 2.0 0.00 0.29 0.29 91 1019.1
20260903235033 76 0 0.0 1.0 0.00 0.29 0.29 91 1019.2
20260903234552 76 0 0.0 1.0 0.00 0.29 0.29 91 1019.1
20260903234030 77 0 0.0 0.0 0.00 0.29 0.29 91 1019.1
20260903233535 77 0 0.0 0.0 0.00 0.29 0.29 91 1019.1
20260903233120 77 0 0.0 2.0 0.00 0.29 0.29 91 1018.9
20260903232533 77 0 0.0 2.0 0.00 0.29 0.29 91 1019.1
20260903232033 77 302 1.0 2.0 0.00 0.29 0.29 89 1018.9
20260903231549 78 0 1.0 2.0 0.00 0.29 0.29 90 1018.9
20260903231037 78 0 0.0 0.0 0.00 0.29 0.29 89 1018.8
20260903230533 78 0 0.0 1.0 0.00 0.29 0.29 89 1018.8
20260903230112 77 0 0.0 1.0 0.00 0.29 0.29 89 1018.9
20260903225535 77 0 0.0 3.0 0.00 0.29 0.29 88 1018.7
20260903225033 77 0 0.0 3.0 0.00 0.29 0.29 88 1018.9
20260903224626 78 301 0.0 0.0 0.00 0.29 0.29 89 1018.8
20260903224033 78 0 0.0 0.0 0.00 0.29 0.29 90 1018.9
20260903223533 78 0 0.0 0.0 0.00 0.29 0.29 90 1019.0
20260903223130 78 0 0.0 0.0 0.00 0.29 0.29 88 1019.0
20260903222535 78 0 0.0 0.0 0.00 0.29 0.29 87 1018.9
20260903222034 78 0 0.0 0.0 0.00 0.29 0.29 88 1018.9
20260903221603 79 0 0.0 0.0 0.00 0.29 0.29 90 1018.9
20260903221034 79 0 0.0 0.0 0.00 0.29 0.29 91 1019.1
20260903220534 79 0 0.0 0.0 0.00 0.29 0.29 91 1019.1
20260903220100 79 0 0.0 0.0 0.00 0.29 0.29 92 1019.0
20260903215534 79 0 0.0 0.0 0.00 0.29 0.29 92 1019.0
20260903215034 79 0 0.0 0.0 0.00 0.29 0.29 92 1019.1
20260903214604 79 0 0.0 0.0 0.00 0.29 0.29 94 1019.1
20260903214033 78 0 0.0 0.0 0.00 0.29 0.29 95 1019.2
20260903213532 78 0 0.0 0.0 0.00 0.29 0.29 95 1019.1
20260903213106 78 0 0.0 0.0 0.00 0.29 0.29 95 1019.1
20260903212534 77 0 0.0 0.0 0.00 0.29 0.29 95 1019.1
20260903212034 77 0 0.0 0.0 0.01 0.29 0.29 95 1019.2
20260903211557 76 0 0.0 0.0 0.03 0.29 0.29 95 1019.2
20260903211033 76 0 0.0 0.0 0.12 0.29 0.29 95 1019.3
20260903210533 76 0 0.0 0.0 0.22 0.29 0.29 95 1019.3
20260903210142 75 0 0.0 0.0 0.29 0.29 0.29 94 1019.3
20260903205537 74 0 0.0 0.0 0.29 0.29 0.29 93 1019.3
20260903205033 74 0 0.0 0.0 0.29 0.29 0.29 93 1019.2
20260903204553 74 0 0.0 0.0 0.29 0.29 0.29 93 1019.3
20260903204038 74 0 0.0 0.0 0.29 0.29 0.29 92 1019.7
20260903203535 74 0 0.0 2.0 0.29 0.29 0.29 91 1019.9
20260903203052 74 0 0.0 8.0 0.29 0.29 0.29 89 1019.7
20260903202533 75 0 0.0 8.0 0.29 0.29 0.29 88 1019.6
20260903202033 76 301 3.0 8.0 0.28 0.28 0.28 85 1019.6
20260903201547 78 298 3.0 7.0 0.25 0.25 0.25 82 1020.1
20260903201033 80 336 3.0 7.0 0.15 0.15 0.15 79 1020.4
20260903200533 83 58 2.0 6.0 0.05 0.05 0.05 75 1020.2
20260903200058 85 26 2.0 9.0 0.00 0.00 0.00 69 1020.1
20260903195535 87 5 3.0 9.0 0.00 0.00 0.00 66 1020.1
20260903195034 88 16 0.0 4.0 0.00 0.00 0.00 64 1019.8
20260903194556 89 326 1.0 4.0 0.00 0.00 0.00 59 1019.8
20260903194032 90 17 1.0 8.0 0.00 0.00 0.00 59 1019.6
20260903193541 90 29 1.0 8.0 0.00 0.00 0.00 62 1019.6
20260903193102 89 209 2.0 8.0 0.00 0.00 0.00 60 1019.6
20260903192535 89 201 1.0 5.0 0.00 0.00 0.00 62 1019.8
20260903192035 89 0 0.0 7.0 0.00 0.00 0.00 63 1019.9
20260903191555 89 198 2.0 7.0 0.00 0.00 0.00 61 1019.7
20260903191034 89 196 2.0 7.0 0.00 0.00 0.00 61 1019.8
20260903190535 89 206 1.0 5.0 0.00 0.00 0.00 60 1020.0
20260903190106 89 0 2.0 5.0 0.00 0.00 0.00 61 1019.9
20260903185537 89 188 0.0 5.0 0.00 0.00 0.00 65 1019.8
20260903185035 89 205 0.0 5.0 0.00 0.00 0.00 63 1019.9
20260903184556 89 209 0.0 2.0 0.00 0.00 0.00 65 1020.0
20260903184034 90 0 0.0 3.0 0.00 0.00 0.00 65 1020.0
20260903183533 89 0 0.0 5.0 0.00 0.00 0.00 62 1020.0
20260903183109 88 111 1.0 7.0 0.00 0.00 0.00 65 1020.1
20260903182537 88 178 1.0 7.0 0.00 0.00 0.00 67 1020.2
20260903182036 87 201 2.0 5.0 0.00 0.00 0.00 68 1020.2
20260903181557 87 0 0.0 2.0 0.00 0.00 0.00 76 1020.1
20260903181036 86 240 0.0 2.0 0.00 0.00 0.00 71 1020.2
20260903180534 85 0 0.0 2.0 0.00 0.00 0.00 73 1020.2
20260903180100 85 0 0.0 2.0 0.00 0.00 0.00 73 1020.2
20260903175534 85 244 1.0 2.0 0.00 0.00 0.00 72 1020.3
20260903175034 86 0 0.0 1.0 0.00 0.00 0.00 71 1020.3
20260903174551 86 249 0.0 1.0 0.00 0.00 0.00 68 1020.4
20260903174032 87 0 0.0 1.0 0.00 0.00 0.00 71 1020.4
20260903173537 87 0 0.0 2.0 0.00 0.00 0.00 69 1020.5
20260903173059 88 0 0.0 2.0 0.00 0.00 0.00 65 1020.6
20260903172536 87 0 0.0 3.0 0.00 0.00 0.00 67 1020.7
20260903172034 87 0 0.0 3.0 0.00 0.00 0.00 66 1020.6
20260903171610 87 0 1.0 3.0 0.00 0.00 0.00 67 1020.7
20260903171035 87 0 1.0 3.0 0.00 0.00 0.00 69 1020.7
20260903170535 86 219 1.0 4.0 0.00 0.00 0.00 71 1020.7
20260903170105 87 0 0.0 4.0 0.00 0.00 0.00 68 1020.9
20260903165533 87 0 2.0 4.0 0.00 0.00 0.00 66 1020.8
20260903165033 87 205 1.0 5.0 0.00 0.00 0.00 69 1021.0
20260903164555 87 205 2.0 5.0 0.00 0.00 0.00 68 1020.9
20260903164033 87 210 2.0 4.0 0.00 0.00 0.00 69 1021.2
20260903163535 86 198 1.0 3.0 0.00 0.00 0.00 69 1021.2
20260903163048 86 194 0.0 6.0 0.00 0.00 0.00 73 1021.4
20260903162536 86 259 2.0 6.0 0.00 0.00 0.00 70 1021.3
20260903162034 86 207 2.0 4.0 0.00 0.00 0.00 71 1021.4
20260903161559 86 202 1.0 5.0 0.00 0.00 0.00 71 1021.6
20260903161035 86 201 1.0 5.0 0.00 0.00 0.00 71 1021.5
20260903160533 86 0 0.0 3.0 0.00 0.00 0.00 70 1021.5
20260903160051 85 0 0.0 3.0 0.00 0.00 0.00 72 1021.6
20260903155533 85 215 0.0 3.0 0.00 0.00 0.00 72 1021.6
20260903155035 85 0 0.0 3.0 0.00 0.00 0.00 70 1021.7
20260903154559 84 211 0.0 2.0 0.00 0.00 0.00 72 1021.6
20260903154043 84 211 0.0 2.0 0.00 0.00 0.00 73 1021.6
20260903153537 84 0 0.0 2.0 0.00 0.00 0.00 73 1021.7
20260903153057 83 205 0.0 3.0 0.00 0.00 0.00 75 1021.7
20260903152535 83 0 0.0 3.0 0.00 0.00 0.00 75 1021.6
20260903152033 83 203 1.0 3.0 0.00 0.00 0.00 74 1021.6
20260903151558 83 0 0.0 2.0 0.00 0.00 0.00 75 1021.6
20260903151036 82 0 0.0 2.0 0.00 0.00 0.00 74 1021.7
20260903150533 82 0 0.0 3.0 0.00 0.00 0.00 75 1021.7
20260903145537 82 213 0.0 3.0 0.00 0.00 0.00 75 1021.5
20260903145036 81 0 0.0 2.0 0.00 0.00 0.00 76 1021.6
20260903144550 81 0 0.0 1.0 0.00 0.00 0.00 77 1021.6
20260903144034 81 0 0.0 1.0 0.00 0.00 0.00 77 1021.6
20260903143533 81 0 0.0 0.0 0.00 0.00 0.00 78 1021.5
20260903143105 80 0 0.0 0.0 0.00 0.00 0.00 78 1021.5
20260903142535 80 0 0.0 0.0 0.00 0.00 0.00 79 1021.5
20260903142035 79 0 0.0 0.0 0.00 0.00 0.00 80 1021.6
20260903141608 79 0 0.0 0.0 0.00 0.00 0.00 81 1021.5
20260903141033 78 0 0.0 0.0 0.00 0.00 0.00 83 1021.4
20260903140533 78 0 0.0 0.0 0.00 0.00 0.00 85 1021.7
20260903140052 77 0 0.0 0.0 0.00 0.00 0.00 85 1021.6
20260903135533 76 0 0.0 0.0 0.00 0.00 0.00 85 1021.6
20260903135033 76 0 0.0 1.0 0.00 0.00 0.00 87 1021.7
20260903134559 75 0 0.0 1.0 0.00 0.00 0.00 88 1021.7
20260903134035 75 0 0.0 0.0 0.00 0.00 0.00 89 1021.6
20260903133537 74 0 0.0 0.0 0.00 0.00 0.00 90 1021.6
20260903133057 74 0 0.0 0.0 0.00 0.00 0.00 91 1021.8
20260903132536 73 0 0.0 0.0 0.00 0.00 0.00 91 1021.7
20260903132037 72 0 0.0 0.0 0.00 0.00 0.00 92 1021.8
20260903131609 72 0 0.0 0.0 0.00 0.00 0.00 93 1021.9
20260903131033 71 0 0.0 0.0 0.00 0.00 0.00 94 1022.0
20260903130534 70 0 0.0 0.0 0.00 0.00 0.00 95 1021.9
20260903130055 70 0 0.0 0.0 0.00 0.00 0.00 95 1022.0
20260903125533 70 0 0.0 0.0 0.00 0.00 0.00 95 1022.0
20260903125033 70 0 0.0 0.0 0.00 0.00 0.00 95 1021.9
20260903124552 69 0 0.0 0.0 0.00 0.00 0.00 95 1022.0
20260903124032 69 0 0.0 0.0 0.00 0.00 0.00 95 1022.0
20260903123535 69 0 0.0 0.0 0.00 0.00 0.00 95 1022.1
20260903123104 68 0 0.0 0.0 0.00 0.00 0.00 95 1022.1
20260903122536 68 0 0.0 0.0 0.00 0.00 0.00 94 1021.9
20260903122036 68 0 0.0 0.0 0.00 0.00 0.00 94 1022.0
20260903121620 68 0 0.0 0.0 0.00 0.00 0.00 94 1022.0
20260903121033 68 0 0.0 0.0 0.00 0.00 0.00 94 1022.0
20260903120532 68 0 0.0 0.0 0.00 0.00 0.00 94 1021.9
20260903120053 68 0 0.0 0.0 0.00 0.00 0.00 94 1021.8
20260903115533 68 0 0.0 0.0 0.00 0.00 0.00 94 1021.8
20260903115035 68 0 0.0 0.0 0.00 0.00 0.00 94 1021.6
20260903114557 68 0 0.0 0.0 0.00 0.00 0.00 94 1021.6
20260903114035 68 0 0.0 0.0 0.00 0.00 0.00 94 1021.6
20260903113535 68 0 0.0 0.0 0.00 0.00 0.00 94 1021.5
20260903113055 68 0 0.0 0.0 0.00 0.00 0.00 94 1021.5
20260903112536 68 0 0.0 0.0 0.00 0.00 0.00 94 1021.4
20260903112035 68 0 0.0 0.0 0.00 0.00 0.00 94 1021.4
20260903111558 68 0 0.0 0.0 0.00 0.00 0.00 94 1021.2
20260903111035 68 0 0.0 0.0 0.00 0.00 0.00 94 1021.3
20260903110536 68 0 0.0 0.0 0.00 0.00 0.00 94 1021.2
20260903110053 68 0 0.0 0.0 0.00 0.00 0.00 93 1021.1
20260903105535 68 0 0.0 0.0 0.00 0.00 0.00 93 1021.0
20260903105036 68 0 0.0 0.0 0.00 0.00 0.00 93 1020.9
20260903104603 68 0 0.0 0.0 0.00 0.00 0.00 93 1021.0
20260903104036 68 0 0.0 0.0 0.00 0.00 0.00 94 1021.0
20260903103535 68 0 0.0 0.0 0.00 0.00 0.00 94 1020.8
20260903103057 68 0 0.0 0.0 0.00 0.00 0.00 94 1020.8
20260903102536 68 0 0.0 0.0 0.00 0.00 0.00 94 1020.9
20260903102035 68 0 0.0 0.0 0.00 0.00 0.00 94 1020.7
20260903101559 68 0 0.0 0.0 0.00 0.00 0.00 94 1020.9
20260903101033 68 0 0.0 0.0 0.00 0.00 0.00 94 1020.7
20260903100535 68 0 0.0 0.0 0.00 0.00 0.00 93 1020.6
20260903100056 68 0 0.0 0.0 0.00 0.00 0.00 93 1020.6